Bloomington, IL

10:30 AM CDT on August 22, 2017 (GMT -0500)
Central Ill Regional

Weather History for KBMI - March, 2013

Change the Weather History Date:

Monday, March 4, 2013

  Actual Average Record
Temperature  
Mean Temperature 28 °F -  
Max Temperature 34 °F 46 °F 61 °F (2011)
Min Temperature 22 °F 31 °F -2 °F (2002)
Degree Days  
Heating Degree Days 37    
Moisture  
Dew Point 25 °F    
Average Humidity 81    
Maximum Humidity 89    
Minimum Humidity 73    
Precipitation  
Precipitation 0.00 in - - ()
Sea Level Pressure  
Sea Level Pressure 30.03 in    
Wind  
Wind Speed 14 mph (ESE)    
Max Wind Speed 23 mph    
Max Gust Speed 26 mph    
Visibility 9 miles    
Events Snow    
Averages and records for this station are not official NWS values.
T = Trace of Precipitation, MM = Missing Value Source: NWS Daily Summary

Daily Weather History Graph

Daily Weather History Graph

Search for Another Location

Airport or City:

Trip Planner

Search our weather history database for the weather conditions in past years. The results will help you decide how hot, cold, wet, or windy it might be!

Date:

Astronomy

Mar. 04, 2013 Rise Set
Actual Time 6:24 AM CST 5:50 PM CST
Civil Twilight 5:57 AM CST 6:18 PM CST
Nautical Twilight 5:25 AM CST 6:49 PM CST
Astronomical Twilight 4:53 AM CST 7:21 PM CST
Moon 12:34 AM CST (3/4) 10:31 AM CST (3/4)
Length of Visible Light 12h 20m
Length of Day
11h 26m
Waning Gibbous, 52% of the Moon is Illuminated
Mar 4
Waning Gibbous
Mar 4
Last Quarter
Mar 11
New
Mar 19
First Quarter
Mar 27
Full

Hourly Weather History & Observations

Time (CST) Temp. Windchill Dew Point Humidity Pressure Visibility Wind Dir Wind Speed Gust Speed Precip Events Conditions
12:56 AM 22.1 °F 13.7 °F 16.2 °F 78% 30.16 in 10.0 mi ESE 6.9 mph - N/A   Clear
1:56 AM 23.0 °F 13.9 °F 17.1 °F 78% 30.15 in 10.0 mi ESE 8.1 mph - N/A   Clear
3:56 AM 25.2 °F 14.4 °F 19.0 °F 78% 30.12 in 10.0 mi SE 11.5 mph - N/A   Scattered Clouds
4:56 AM 26.1 °F 14.5 °F 20.1 °F 78% 30.11 in 10.0 mi SE 13.8 mph - N/A   Overcast
6:56 AM 27.1 °F 15.9 °F 21.0 °F 78% 30.11 in 10.0 mi SE 13.8 mph - N/A   Scattered Clouds
7:56 AM 28.0 °F 16.5 °F 23.0 °F 81% 30.10 in 10.0 mi SE 15.0 mph - N/A   Mostly Cloudy
8:56 AM 30.0 °F 18.7 °F 24.1 °F 79% 30.08 in 10.0 mi ESE 16.1 mph - N/A   Mostly Cloudy
9:33 AM 30.2 °F 19.3 °F 24.8 °F 80% 30.02 in 7.0 mi SE 15.0 mph - 0.00 in Snow Light Snow
9:56 AM 30.0 °F 17.9 °F 25.2 °F 82% 30.08 in 2.0 mi SE 18.4 mph - 0.00 in Snow Light Snow
10:21 AM 30.2 °F 18.1 °F 24.8 °F 80% 30.01 in 2.0 mi SE 18.4 mph - 0.00 in Snow Light Snow
10:56 AM 31.1 °F 18.9 °F 25.2 °F 79% 30.06 in 6.0 mi SE 19.6 mph - 0.00 in Snow Light Snow
11:56 AM 32.9 °F 21.3 °F 27.1 °F 79% 30.04 in 10.0 mi ESE 19.6 mph - 0.00 in   Partly Cloudy
12:56 PM 32.9 °F 20.4 °F 26.1 °F 76% 30.00 in 10.0 mi ESE 23.0 mph - N/A   Scattered Clouds
1:56 PM 34.0 °F 21.8 °F 26.1 °F 73% 29.97 in 10.0 mi ESE 23.0 mph - N/A   Partly Cloudy
2:56 PM 34.0 °F 22.4 °F 27.1 °F 76% 29.97 in 10.0 mi East 20.7 mph 26.5 mph N/A   Mostly Cloudy
3:56 PM 32.9 °F 21.6 °F 27.1 °F 79% 29.96 in 10.0 mi East 18.4 mph - N/A   Overcast
4:56 PM 32.9 °F 21.3 °F 28.0 °F 82% 29.96 in 10.0 mi ESE 19.6 mph - N/A   Overcast
5:56 PM 32.0 °F 21.6 °F 28.0 °F 85% 29.98 in 10.0 mi East 15.0 mph - N/A   Overcast
6:56 PM 32.0 °F 21.2 °F 29.1 °F 89% 29.99 in 10.0 mi East 16.1 mph - N/A   Overcast
7:56 PM 32.0 °F 20.8 °F 29.1 °F 89% 29.99 in 10.0 mi East 17.3 mph - N/A   Overcast
8:56 PM 32.9 °F 21.3 °F 29.1 °F 86% 29.98 in 10.0 mi East 19.6 mph - N/A   Overcast
9:56 PM 32.9 °F 22.4 °F 29.1 °F 86% 29.97 in 10.0 mi East 16.1 mph - N/A   Overcast
10:56 PM 32.9 °F 22.4 °F 29.1 °F 86% 29.96 in 10.0 mi East 16.1 mph - N/A   Overcast
11:56 PM 32.9 °F 22.4 °F 29.1 °F 86% 29.94 in 10.0 mi East 16.1 mph - N/A   Overcast